TimeMST,TemperatureF,Dew PointF,Humidity,Sea Level PressureIn,VisibilityMPH,Wind Direction,Wind SpeedMPH,Gust SpeedMPH,PrecipitationIn,Events,Conditions,WindDirDegrees,DateUTC
12:15 AM,86.0,71.6,62,29.95,10.0,Calm,Calm,-,N/A,,Mostly Cloudy,0,2013-07-26 07:15:00
12:35 AM,86.0,71.6,62,29.95,10.0,Calm,Calm,-,N/A,,Overcast,0,2013-07-26 07:35:00
12:55 AM,86.0,69.8,58,29.95,10.0,Calm,Calm,-,N/A,,Overcast,0,2013-07-26 07:55:00
1:15 AM,86.0,71.6,62,29.95,10.0,NNW,3.5,-,N/A,,Overcast,330,2013-07-26 08:15:00
1:35 AM,86.0,71.6,62,29.95,10.0,WSW,3.5,-,N/A,,Overcast,240,2013-07-26 08:35:00
1:55 AM,86.0,69.8,58,29.95,10.0,Calm,Calm,-,N/A,,Overcast,0,2013-07-26 08:55:00
2:15 AM,86.0,71.6,62,29.96,10.0,Calm,Calm,-,N/A,,Overcast,0,2013-07-26 09:15:00
2:35 AM,84.2,71.6,66,29.95,10.0,Calm,Calm,-,N/A,,Overcast,0,2013-07-26 09:35:00
2:55 AM,84.2,71.6,66,29.95,10.0,Calm,Calm,-,N/A,,Overcast,0,2013-07-26 09:55:00
3:15 AM,84.2,71.6,66,29.96,10.0,Calm,Calm,-,N/A,,Overcast,0,2013-07-26 10:15:00
3:35 AM,84.2,71.6,66,29.96,10.0,South,4.6,-,N/A,,Overcast,170,2013-07-26 10:35:00
3:55 AM,84.2,71.6,66,29.96,10.0,Calm,Calm,-,N/A,,Overcast,0,2013-07-26 10:55:00
4:15 AM,84.2,71.6,66,29.97,10.0,East,4.6,-,N/A,,Overcast,100,2013-07-26 11:15:00
4:35 AM,84.2,69.8,62,29.97,10.0,Calm,Calm,-,N/A,,Overcast,0,2013-07-26 11:35:00
4:55 AM,84.2,69.8,62,29.98,10.0,Calm,Calm,-,N/A,,Overcast,0,2013-07-26 11:55:00
5:15 AM,84.2,71.6,66,29.99,10.0,Calm,Calm,-,N/A,,Overcast,0,2013-07-26 12:15:00
5:35 AM,84.2,68.0,58,29.99,10.0,Calm,Calm,-,N/A,,Overcast,0,2013-07-26 12:35:00
5:55 AM,86.0,69.8,58,30.00,10.0,NNE,3.5,-,N/A,,Overcast,30,2013-07-26 12:55:00
6:15 AM,86.0,69.8,58,30.01,10.0,NE,3.5,-,N/A,,Mostly Cloudy,50,2013-07-26 13:15:00
6:35 AM,86.0,69.8,58,30.01,10.0,ESE,3.5,-,N/A,,Mostly Cloudy,110,2013-07-26 13:35:00
6:55 AM,84.2,71.6,66,30.01,10.0,Calm,Calm,-,N/A,,Mostly Cloudy,0,2013-07-26 13:55:00
7:15 AM,84.2,71.6,66,30.02,9.0,SSE,4.6,-,N/A,,Scattered Clouds,160,2013-07-26 14:15:00
7:35 AM,84.2,73.4,70,30.03,8.0,SE,3.5,-,N/A,,Mostly Cloudy,130,2013-07-26 14:35:00
7:55 AM,84.2,73.4,70,30.03,7.0,ENE,8.1,-,N/A,,Scattered Clouds,60,2013-07-26 14:55:00
8:15 AM,86.0,73.4,66,30.04,10.0,NE,9.2,-,N/A,,Clear,50,2013-07-26 15:15:00
8:35 AM,86.0,71.6,62,30.04,10.0,NNE,3.5,-,N/A,,Clear,20,2013-07-26 15:35:00
8:55 AM,87.8,69.8,55,30.05,10.0,NNE,3.5,-,N/A,,Partly Cloudy,20,2013-07-26 15:55:00
9:15 AM,89.6,69.8,52,30.05,10.0,North,3.5,-,N/A,,Partly Cloudy,350,2013-07-26 16:15:00
9:35 AM,89.6,69.8,52,30.04,10.0,NW,4.6,-,N/A,,Scattered Clouds,320,2013-07-26 16:35:00
9:55 AM,89.6,71.6,55,30.05,10.0,NW,5.8,-,N/A,,Overcast,310,2013-07-26 16:55:00
10:15 AM,89.6,69.8,52,30.05,10.0,NNW,6.9,-,N/A,,Scattered Clouds,340,2013-07-26 17:15:00
10:35 AM,89.6,69.8,52,30.05,10.0,NNW,8.1,-,N/A,,Scattered Clouds,330,2013-07-26 17:35:00
10:55 AM,91.4,68.0,46,30.05,10.0,WNW,6.9,-,N/A,,Partly Cloudy,300,2013-07-26 17:55:00
11:15 AM,93.2,68.0,44,30.04,10.0,WSW,3.5,-,N/A,,Clear,250,2013-07-26 18:15:00
11:35 AM,93.2,68.0,44,30.03,10.0,Calm,Calm,-,N/A,,Clear,0,2013-07-26 18:35:00
11:55 AM,93.2,68.0,44,30.03,10.0,SSE,6.9,-,N/A,,Clear,150,2013-07-26 18:55:00
12:15 PM,95.0,66.2,39,30.02,10.0,ESE,5.8,-,N/A,,Partly Cloudy,120,2013-07-26 19:15:00
12:35 PM,96.8,66.2,37,30.01,10.0,SSE,8.1,-,N/A,,Partly Cloudy,160,2013-07-26 19:35:00
12:55 PM,96.8,66.2,37,30.01,10.0,SSW,4.6,-,N/A,,Clear,210,2013-07-26 19:55:00
1:15 PM,96.8,64.4,34,30.00,10.0,SSE,6.9,-,N/A,,Clear,150,2013-07-26 20:15:00
1:35 PM,98.6,60.8,29,29.99,10.0,WNW,4.6,-,N/A,,Clear,290,2013-07-26 20:35:00
1:55 PM,98.6,64.4,32,29.98,10.0,South,9.2,-,N/A,,Clear,170,2013-07-26 20:55:00
2:15 PM,98.6,62.6,30,29.97,10.0,WSW,3.5,-,N/A,,Clear,250,2013-07-26 21:15:00
2:35 PM,100.4,60.8,27,29.96,10.0,West,10.4,-,N/A,,Clear,260,2013-07-26 21:35:00
2:55 PM,100.4,60.8,27,29.95,10.0,SSE,4.6,-,N/A,,Clear,150,2013-07-26 21:55:00
3:15 PM,100.4,60.8,27,29.94,10.0,SW,9.2,-,N/A,,Clear,230,2013-07-26 22:15:00
3:35 PM,102.2,62.6,27,29.94,10.0,South,9.2,-,N/A,,Clear,170,2013-07-26 22:35:00
3:55 PM,100.4,62.6,29,29.93,10.0,SSE,5.8,-,N/A,,Clear,160,2013-07-26 22:55:00
4:15 PM,100.4,62.6,29,29.92,10.0,SE,9.2,-,N/A,,Clear,130,2013-07-26 23:15:00
4:35 PM,100.4,62.6,29,29.92,10.0,East,8.1,-,N/A,,Clear,100,2013-07-26 23:35:00
4:55 PM,100.4,62.6,29,29.91,10.0,ESE,5.8,-,N/A,,Clear,120,2013-07-26 23:55:00
5:15 PM,100.4,62.6,29,29.91,10.0,SE,8.1,-,N/A,,Clear,130,2013-07-27 00:15:00
5:35 PM,100.4,62.6,29,29.90,10.0,SE,4.6,-,N/A,,Clear,130,2013-07-27 00:35:00
5:55 PM,100.4,62.6,29,29.89,10.0,ESE,4.6,-,N/A,,Clear,120,2013-07-27 00:55:00
6:15 PM,100.4,62.6,29,29.89,10.0,SE,6.9,-,N/A,,Clear,130,2013-07-27 01:15:00
6:35 PM,100.4,62.6,29,29.89,10.0,SE,5.8,-,N/A,,Clear,140,2013-07-27 01:35:00
6:55 PM,100.4,64.4,31,29.89,10.0,SE,4.6,-,N/A,,Clear,130,2013-07-27 01:55:00
7:15 PM,98.6,64.4,32,29.89,10.0,SE,4.6,-,N/A,,Clear,130,2013-07-27 02:15:00
7:35 PM,98.6,64.4,32,29.89,10.0,SE,3.5,-,N/A,,Clear,130,2013-07-27 02:35:00
7:55 PM,96.8,66.2,37,29.90,10.0,ESE,4.6,-,N/A,,Clear,120,2013-07-27 02:55:00
8:15 PM,96.8,66.2,37,29.91,10.0,ESE,4.6,-,N/A,,Clear,120,2013-07-27 03:15:00
8:35 PM,95.0,66.2,39,29.92,10.0,East,4.6,-,N/A,,Scattered Clouds,100,2013-07-27 03:35:00
8:55 PM,95.0,66.2,39,29.92,10.0,ESE,4.6,-,N/A,,Scattered Clouds,110,2013-07-27 03:55:00
9:15 PM,93.2,66.2,41,29.93,10.0,SE,3.5,-,N/A,,Partly Cloudy,140,2013-07-27 04:15:00
9:35 PM,93.2,66.2,41,29.93,10.0,SSW,3.5,-,N/A,,Scattered Clouds,200,2013-07-27 04:35:00
9:55 PM,91.4,66.2,43,29.94,10.0,SSW,3.5,-,N/A,,Partly Cloudy,200,2013-07-27 04:55:00
10:15 PM,91.4,64.4,41,29.94,10.0,SW,4.6,-,N/A,,Clear,220,2013-07-27 05:15:00
10:35 PM,91.4,62.6,38,29.94,10.0,West,6.9,-,N/A,,Clear,270,2013-07-27 05:35:00
10:55 PM,93.2,60.8,34,29.94,10.0,WSW,5.8,-,N/A,,Clear,250,2013-07-27 05:55:00
11:15 PM,91.4,62.6,38,29.95,10.0,West,5.8,-,N/A,,Mostly Cloudy,270,2013-07-27 06:15:00
11:35 PM,91.4,62.6,38,29.94,10.0,West,4.6,-,N/A,,Overcast,270,2013-07-27 06:35:00
11:55 PM,91.4,62.6,38,29.94,10.0,West,3.5,-,N/A,,Mostly Cloudy,280,2013-07-27 06:55:00